Location: Easter Hill Village
(37.9235°N, 122.3444°W)
Time: 15:56:11
(UTC+00:00)

Meteor 1-5 Rocket - Pass Details

Date: 16 September 2019
Orbit: 789 x 915 km, 81.2° (Epoch: 19 October)

Event Time Altitude Azimuth Distance (km) Brightness Sun altitude
Rises 12:38:52 0° 349° (N) 3,327 7.4 -15.0°
Reaches altitude 10° 12:41:14 10° 348° (NNW) 2,405 6.6 -14.6°
Maximum altitude 12:46:40 79° 263° (W) 849 4.1 -13.5°
Drops below altitude 10° 12:52:15 10° 177° (S) 2,469 6.5 -12.5°
Sets 12:54:42 0° 176° (S) 3,421 7.3 -12.0°
